Погода в Кузьмовке

Погода в Кузьмовке : погода сейчас, прогноз погоды и архив. Всё, что Вы хотите узнать о погоде в Кузьмовке!

Поиск расширенной информации на нашем сайте:

Другие новости

Новости СМИ2

Главная страница сайта

Новости сайта

03.07.2017

Напоминаем, что на нашем специализированном сайте Метеоцентр.Азия вы можете получить высокодетализированные автоматические прогнозы погоды по пунктам России, СНГ и мира в авиационном формате (включающие направление и скорость ветра, видимость, явления погоды, количество и форму облачности, нижнюю и верхнюю границу облачности).

Рекомендуем: Комплексные системы безопасности и слаботочные сети читать дальше.

Погода в Кузьмовке - сегодня

Время (UTC), дата Ветер
(°,м/с) 
Видим.   Явления Облачность Т
(°С)
Тd
(°С)
f(%) Тe
(°С)
Pmin
(гПа)
dP
(гПа)
Po
(мм)
O2
(г/м3)
Тmin Tmax R s Состояние
почвы
03 20.02.18 170 (Ю) 4000 м  слаб. снег  10/10 2000 м 
[Ns]
-17.1 -19.7 80 -17  1021.7  0.3  760  328           
06 20.02.18 180 (Ю) 20000 м  {снег}  10/0 верхняя 
[Ci sp]
-15.8 -19.2 75 -18  1021.5  760  327           
09 20.02.18 320 (СЗ) 10 км  слаб. снег  10/10 2000 м 
[As trans]
-12.2 -15.7 75 -12  1022.2  0.7  761  322           
15 20.02.18 тихо ()   10 км  слаб. снег  10/10 2000 м 
[As trans]
-15.9 -18.6 80 -16  1023.4  761  327           
21 20.02.18 тихо ()   10 км  слаб. снег  10/10 2000 м 
[As trans]
-23.4 -25.9 80 -23  1024.1  0.4  762  337           
00 21.02.18 тихо ()   20000 м  {снег}  6/0 верхняя 
[Ci fib]
-29.2 -31.6 80 -29  1025.3  762  346  -29.2    0.7  106  равномерный
сухой снег
100% 
03 21.02.18 тихо ()   20000 м    1/0 верхняя 
[Ci fib]
-29.7 -32.8 74 -30  1026.4  1.1  763  347  -31.6         
06 21.02.18 300 (СЗ) 20000 м    3/0 верхняя 
[Ci fib]
-24.6 -27.9 74 -25  1026.9  0.6  764  340           
09 21.02.18 320 (СЗ) 20000 м    1/0 верхняя 
[Ci fib]
-18.7 -22.8 70 -19  1027.1  0.5  764  332           
12 21.02.18 тихо ()   20000 м    ясно 
-26.7 -29.9 74 -27  1028  0.6  764  343    -18.5       
15 21.02.18 тихо ()   20000 м    ясно 
-31.6 -34.5 76 -32  1028.7  0.5  765  350           
18 21.02.18 тихо ()   20000 м    ясно 
-33.4 -36.3 75 -33  1028.9  0.2  765  353           
00 22.02.18 тихо ()   20000 м    ясно 
-37.5 -41.2 68 -38  1029.9  766  360  -37.5      106  равномерный
сухой снег
100% 
03 22.02.18 тихо ()   20000 м    ясно 
-36.1 -39.7 69 -36  1029  -0.8  765  357  -38.5         
06 22.02.18 170 (Ю) 20000 м    ясно 
-29.5 -34.1 64 -30  1027.6  -1.2  764  347           
09 22.02.18 300 (СЗ) 20000 м    ясно 
-26 -31.5 60 -27  1025.6  -1.9  763  342           
12 22.02.18 090 (В) 20000 м    ясно 
-30 -33 75 -31  1024.7  -1  762  347    -26       
21 22.02.18 тихо ()   20000 м    ясно 
-36.4 -40.1 68 -36  1022.2  -0.9  760  355           
00 23.02.18 тихо ()   20000 м    ясно 
-37.3 -40.8 70 -37  1021.9  0.3  760  357  -37.3      106  равномерный
сухой снег
100% 
03 23.02.18 тихо ()   20000 м    ясно 
-35.9 -39.4 70 -36  1021.3  -0.5  759  354  -37.8         
06 23.02.18 тихо ()   20000 м    ясно 
-28.2 -32.8 65 -28  1019.9  -1.2  758  343           
09 23.02.18 170 (Ю) 20000 м    ясно 
-24.4 -30 60 -25  1018.5  -1.3  757  337           
12 23.02.18 160 (Ю) 20000 м    ясно 
-28.6 -31.7 75 -29  1018.9  0.3  758  343    -24.4       
15 23.02.18 180 (Ю) 20000 м    ясно 
-32.7 -35.8 74 -34  1019.4  0.4  758  349           
18 23.02.18 090 (В) 20000 м    ясно 
-34.9 -37.7 75 -36  1019.7  0.2  758  352           
Время (UTC), дата Ветер
(°,м/с) 
Видим.   Явления Облачность Т
(°С)
Тd
(°С)
f(%) Тe
(°С)
Pmin
(гПа)
dP
(гПа)
Po
(мм)
O2
(г/м3)
Тmin Tmax R s Состояние
почвы

Для получения пояснительной информации подведите курсор к названию столбца.

ПОГОДА в Кузьмовке - архив

Всё, что Вы хотите узнать о погоде в Кузьмовке - удобно и подробно!

Выберите нужную дату (начиная с 1 января 2015* года) и нажмите кнопку "Найти".
Будут отображены архивные сводки погоды по пункту Кузьмовка, начиная с указанной даты.


Отображать данные в формате CSV (для использования в таблицах Excel)


Внимание! Наш архив погоды предназначен исключительно для личного некоммерческого использования в познавательных целях. Если Вам необходимы официальные справки о состоянии погоды (для производственных, юридических, коммерческих и т.п. целей), обращайтесь в органы Росгидромета.

*Примечание: данная дата относится к архиву по метеостанциям СССР (Россия, СНГ, Балтия).
Архив по метеостанциям Зарубежной Европы и Азии (кроме Китая) хранится 10 дней, по другим регионам земного шара (Китай, Африка, Америка, Австралия, Океания) - 1 день.

Кузьмовка - район местоположения метеостанции


Название, широта, долгота, высота метеостанции:
Кузьмовка 62.3°ш. 92.1°д. 60 м над ур. моря [Российская Федерация]

Дополнительная информация

В oтличие oт бoльшинства пoгoдных сайтoв мы публикуем пoдрoбную метеoинфoрмацию в детальнoм прoфессиoнальнoм фoрмате.

Характеристики температуры и влажнoсти вoздуха измеряются на высoте 2 м в тени вдали oт зданий и деревьев.
Скoрoсть ветра измеряется на высoте 10 м (на урoвне рoста челoвека скoрoсть ветра ниже в 1.5-2 раза). Если метеoстанция нахoдится в гoрoде или в лесу, тo скoрoсть ветра занижена на 2-4 м/с пo сравнению с oткрытым местoм. Скoрoсть ветра над акватoриями крупных рек и oзёр, а также на вершинах хoлмoв на 2-5 м/с выше, чем в oбычных услoвиях.
Атмoсфернoе давление в разных тoчках местнoсти мoжет значительнo oтличаться oт давления на метеoстанции, в зависимoсти oт услoвий рельефа (при пoдъёме на 10 м давление пoнижается примернo на 1 мм рт.ст.).